TimeCST,TemperatureF,Dew PointF,Humidity,Sea Level PressureIn,VisibilityMPH,Wind Direction,Wind SpeedMPH,Gust SpeedMPH,PrecipitationIn,Events,Conditions,WindDirDegrees,DateUTC
12:56 AM,21.0,15.1,78,30.30,-9999.0,SSW,9.2,-,N/A,,Unknown,200,2012-11-13 06:56:00
1:56 AM,19.0,14.0,81,30.30,-9999.0,South,6.9,-,N/A,,Unknown,180,2012-11-13 07:56:00
2:56 AM,23.0,17.1,78,30.29,-9999.0,South,5.8,-,N/A,,Unknown,190,2012-11-13 08:56:00
3:56 AM,19.9,15.1,81,30.28,-9999.0,SE,3.5,-,N/A,,Unknown,130,2012-11-13 09:56:00
4:56 AM,21.9,16.0,78,30.29,-9999.0,South,4.6,-,N/A,,Unknown,190,2012-11-13 10:56:00
5:56 AM,24.1,18.0,77,30.29,-9999.0,SSE,8.1,-,N/A,,Unknown,150,2012-11-13 11:56:00
6:56 AM,26.1,19.9,78,30.29,-9999.0,South,4.6,-,N/A,,Unknown,180,2012-11-13 12:56:00
7:56 AM,26.1,19.9,78,30.29,-9999.0,South,5.8,-,N/A,,Unknown,190,2012-11-13 13:56:00
8:56 AM,27.0,21.0,78,30.30,-9999.0,SSW,5.8,-,N/A,,Unknown,200,2012-11-13 14:56:00
9:56 AM,34.0,24.1,67,30.29,-9999.0,WSW,3.5,-,N/A,,Unknown,240,2012-11-13 15:56:00
10:56 AM,37.9,24.1,57,30.27,-9999.0,WSW,8.1,-,N/A,,Unknown,250,2012-11-13 16:56:00
11:56 AM,39.0,23.0,53,30.26,-9999.0,SW,3.5,-,N/A,,Unknown,230,2012-11-13 17:56:00
12:56 PM,41.0,23.0,49,30.25,-9999.0,WSW,6.9,-,N/A,,Unknown,240,2012-11-13 18:56:00
1:56 PM,42.1,24.1,49,30.25,-9999.0,Calm,Calm,-,N/A,,Unknown,0,2012-11-13 19:56:00
2:56 PM,43.0,24.1,47,30.23,-9999.0,West,8.1,-,N/A,,Unknown,270,2012-11-13 20:56:00
3:56 PM,41.0,25.0,53,30.24,-9999.0,WSW,3.5,-,N/A,,Unknown,250,2012-11-13 21:56:00
4:56 PM,39.9,25.0,55,30.25,-9999.0,West,4.6,-,N/A,,Unknown,260,2012-11-13 22:56:00
5:56 PM,39.9,25.0,55,30.24,-9999.0,South,3.5,-,N/A,,Unknown,180,2012-11-13 23:56:00
6:56 PM,37.0,27.0,67,30.25,-9999.0,Calm,Calm,-,N/A,,Unknown,0,2012-11-14 00:56:00
7:56 PM,36.0,27.0,70,30.26,-9999.0,Calm,Calm,-,N/A,,Unknown,0,2012-11-14 01:56:00
8:56 PM,37.0,28.0,70,30.26,-9999.0,Calm,Calm,-,N/A,,Unknown,0,2012-11-14 02:56:00
9:56 PM,36.0,27.0,70,30.24,-9999.0,SW,6.9,-,N/A,,Unknown,230,2012-11-14 03:56:00
10:56 PM,36.0,26.1,67,30.24,-9999.0,NW,3.5,-,N/A,,Unknown,320,2012-11-14 04:56:00
11:56 PM,37.0,25.0,62,30.24,-9999.0,Calm,Calm,-,N/A,,Unknown,0,2012-11-14 05:56:00